| time (UTC) | temp C | wind direction | speed KPH | gust KPH | rain 1hr cm | rain 24hr cm | rain mn cm | humidity % | barometer mb |
| 20260503050503 | 0 | 205 | 1.6 | 4.8 | 0.00 | 0.00 | 0.00 | 87 | 1015.3 |
| 20260503050003 | 0 | 205 | 1.6 | 3.2 | 0.00 | 0.00 | 0.00 | 87 | 1015.4 |
| 20260503045505 | 0 | 205 | 1.6 | 3.2 | 0.00 | 0.00 | 0.00 | 86 | 1015.4 |
| 20260503045003 | 0 | 205 | 1.6 | 3.2 | 0.00 | 0.00 | 0.00 | 86 | 1015.5 |
| 20260503044503 | 0 | 205 | 1.6 | 3.2 | 0.00 | 0.00 | 0.00 | 85 | 1015.4 |
| 20260503044005 | 0 | 205 | 1.6 | 3.2 | 0.00 | 0.00 | 0.00 | 85 | 1015.4 |
| 20260503043503 | 0 | 205 | 1.6 | 3.2 | 0.00 | 0.00 | 0.00 | 84 | 1015.5 |
| 20260503043003 | 1 | 205 | 1.6 | 4.8 | 0.00 | 0.00 | 0.00 | 84 | 1015.5 |
| 20260503042503 | 1 | 205 | 1.6 | 3.2 | 0.00 | 0.00 | 0.00 | 83 | 1015.5 |
| 20260503042003 | 1 | 205 | 1.6 | 3.2 | 0.00 | 0.00 | 0.00 | 83 | 1015.5 |
| 20260503041503 | 1 | 205 | 1.6 | 3.2 | 0.00 | 0.00 | 0.00 | 82 | 1015.5 |
| 20260503041004 | 1 | 206 | 1.6 | 3.2 | 0.00 | 0.00 | 0.00 | 82 | 1015.6 |
| 20260503040503 | 1 | 207 | 1.6 | 3.2 | 0.00 | 0.00 | 0.00 | 82 | 1015.6 |
| 20260503040003 | 1 | 207 | 1.6 | 4.8 | 0.00 | 0.00 | 0.00 | 82 | 1015.6 |
| 20260503035503 | 1 | 229 | 1.6 | 4.8 | 0.00 | 0.00 | 0.00 | 82 | 1015.6 |
| 20260503034504 | 1 | 255 | 1.6 | 3.2 | 0.00 | 0.00 | 0.00 | 81 | 1015.6 |
| 20260503034003 | 1 | 255 | 0.0 | 0.0 | 0.00 | 0.00 | 0.00 | 81 | 1015.6 |
| 20260503033504 | 1 | 255 | 0.0 | 4.8 | 0.00 | 0.00 | 0.00 | 81 | 1015.6 |
| 20260503033003 | 1 | 259 | 1.6 | 3.2 | 0.00 | 0.00 | 0.00 | 81 | 1015.6 |
| 20260503032503 | 1 | 259 | 1.6 | 3.2 | 0.00 | 0.00 | 0.00 | 81 | 1015.6 |
| 20260503032003 | 2 | 260 | 0.0 | 3.2 | 0.00 | 0.00 | 0.00 | 80 | 1015.7 |
| 20260503031503 | 2 | 262 | 0.0 | 1.6 | 0.00 | 0.00 | 0.00 | 80 | 1015.7 |
| 20260503031003 | 2 | 262 | 0.0 | 0.0 | 0.00 | 0.00 | 0.00 | 79 | 1015.7 |
| 20260503030003 | 2 | 262 | 0.0 | 0.0 | 0.00 | 0.00 | 0.00 | 79 | 1015.8 |
| 20260503025503 | 2 | 262 | 0.0 | 0.0 | 0.00 | 0.00 | 0.00 | 78 | 1015.8 |
| 20260503025003 | 2 | 262 | 0.0 | 0.0 | 0.00 | 0.00 | 0.00 | 78 | 1015.8 |
| 20260503024003 | 2 | 262 | 0.0 | 0.0 | 0.00 | 0.00 | 0.00 | 77 | 1015.9 |
| 20260503023503 | 2 | 262 | 0.0 | 1.6 | 0.00 | 0.00 | 0.00 | 77 | 1015.9 |
| 20260503022503 | 2 | 262 | 0.0 | 0.0 | 0.00 | 0.00 | 0.00 | 76 | 1016.0 |
| 20260503022003 | 2 | 262 | 0.0 | 0.0 | 0.00 | 0.00 | 0.00 | 75 | 1016.0 |
| 20260503021505 | 2 | 262 | 0.0 | 0.0 | 0.00 | 0.00 | 0.00 | 75 | 1016.0 |
| 20260503020503 | 2 | 264 | 0.0 | 3.2 | 0.00 | 0.00 | 0.00 | 74 | 1016.1 |
| 20260503020003 | 2 | 264 | 1.6 | 3.2 | 0.00 | 0.00 | 0.00 | 74 | 1016.1 |
| 20260503015505 | 2 | 264 | 3.2 | 4.8 | 0.00 | 0.00 | 0.00 | 74 | 1016.0 |
| 20260503015003 | 2 | 282 | 3.2 | 4.8 | 0.00 | 0.00 | 0.00 | 74 | 1016.0 |
| 20260503014503 | 2 | 271 | 0.0 | 4.8 | 0.00 | 0.00 | 0.00 | 74 | 1015.9 |
| 20260503013505 | 2 | 270 | 1.6 | 3.2 | 0.00 | 0.00 | 0.00 | 73 | 1016.0 |
| 20260503013003 | 2 | 279 | 3.2 | 4.8 | 0.00 | 0.00 | 0.00 | 73 | 1015.9 |
| 20260503012503 | 2 | 269 | 3.2 | 4.8 | 0.00 | 0.00 | 0.00 | 73 | 1016.0 |
| 20260503012004 | 2 | 283 | 1.6 | 8.0 | 0.00 | 0.00 | 0.00 | 73 | 1015.9 |
| 20260503011504 | 2 | 255 | 1.6 | 4.8 | 0.00 | 0.00 | 0.00 | 72 | 1015.9 |
| 20260503010504 | 2 | 307 | 4.8 | 8.0 | 0.00 | 0.00 | 0.00 | 72 | 1015.9 |
| 20260503005503 | 2 | 266 | 3.2 | 9.7 | 0.00 | 0.00 | 0.00 | 71 | 1015.8 |
| 20260503005003 | 2 | 281 | 3.2 | 9.7 | 0.00 | 0.00 | 0.00 | 71 | 1015.8 |
| 20260503004504 | 2 | 276 | 4.8 | 9.7 | 0.00 | 0.00 | 0.00 | 71 | 1015.8 |
| 20260503004003 | 2 | 297 | 3.2 | 8.0 | 0.00 | 0.00 | 0.00 | 71 | 1015.7 |
| 20260503003503 | 2 | 313 | 3.2 | 8.0 | 0.00 | 0.00 | 0.00 | 71 | 1015.6 |
| 20260503003004 | 2 | 290 | 4.8 | 9.7 | 0.00 | 0.00 | 0.00 | 71 | 1015.6 |
| 20260503002004 | 3 | 268 | 3.2 | 12.9 | 0.00 | 0.00 | 0.00 | 70 | 1015.6 |
| 20260503001003 | 3 | 299 | 4.8 | 11.3 | 0.00 | 0.00 | 0.00 | 69 | 1015.6 |
| 20260503000004 | 3 | 265 | 1.6 | 4.8 | 0.00 | 0.00 | 0.00 | 69 | 1015.6 |
| 20260502235503 | 3 | 304 | 3.2 | 4.8 | 0.00 | 0.00 | 0.00 | 68 | 1015.5 |
| 20260502235004 | 3 | 283 | 4.8 | 9.7 | 0.00 | 0.00 | 0.00 | 68 | 1015.5 |
| 20260502234504 | 3 | 253 | 4.8 | 9.7 | 0.00 | 0.00 | 0.00 | 67 | 1015.5 |
| 20260502233504 | 3 | 300 | 4.8 | 9.7 | 0.00 | 0.00 | 0.00 | 66 | 1015.5 |
| 20260502233003 | 3 | 313 | 4.8 | 16.1 | 0.00 | 0.00 | 0.00 | 65 | 1015.4 |
| 20260502232504 | 3 | 264 | 3.2 | 8.0 | 0.00 | 0.00 | 0.00 | 66 | 1015.4 |
| 20260502232003 | 3 | 271 | 8.0 | 16.1 | 0.00 | 0.00 | 0.00 | 65 | 1015.4 |
| 20260502231004 | 4 | 312 | 3.2 | 9.7 | 0.00 | 0.00 | 0.00 | 64 | 1015.3 |
| 20260502230504 | 4 | 305 | 4.8 | 9.7 | 0.00 | 0.00 | 0.00 | 63 | 1015.3 |
| 20260502230004 | 5 | 294 | 4.8 | 12.9 | 0.00 | 0.00 | 0.00 | 62 | 1015.4 |
| 20260502225503 | 5 | 278 | 8.0 | 14.5 | 0.00 | 0.00 | 0.00 | 60 | 1015.2 |
| 20260502225003 | 5 | 276 | 3.2 | 12.9 | 0.00 | 0.00 | 0.00 | 60 | 1015.2 |
| 20260502224503 | 5 | 303 | 8.0 | 14.5 | 0.00 | 0.00 | 0.00 | 59 | 1015.2 |
| 20260502224004 | 5 | 315 | 8.0 | 14.5 | 0.00 | 0.00 | 0.00 | 60 | 1015.2 |
| 20260502223504 | 5 | 314 | 8.0 | 12.9 | 0.00 | 0.00 | 0.00 | 60 | 1015.2 |
| 20260502222004 | 5 | 317 | 8.0 | 16.1 | 0.00 | 0.00 | 0.00 | 61 | 1015.2 |
| 20260502221504 | 5 | 268 | 8.0 | 19.3 | 0.00 | 0.00 | 0.00 | 59 | 1015.2 |
| 20260502220003 | 5 | 328 | 6.4 | 14.5 | 0.00 | 0.03 | 0.00 | 61 | 1015.2 |
| 20260502215503 | 5 | 312 | 3.2 | 14.5 | 0.00 | 0.03 | 0.00 | 59 | 1015.1 |
| 20260502215004 | 5 | 244 | 9.7 | 16.1 | 0.00 | 0.03 | 0.00 | 58 | 1015.2 |
| 20260502214504 | 5 | 252 | 4.8 | 9.7 | 0.00 | 0.05 | 0.00 | 60 | 1015.1 |
| 20260502214003 | 5 | 333 | 6.4 | 16.1 | 0.00 | 0.05 | 0.00 | 59 | 1015.0 |
| 20260502213503 | 5 | 309 | 6.4 | 14.5 | 0.00 | 0.05 | 0.00 | 61 | 1015.0 |
| 20260502213003 | 5 | 355 | 4.8 | 14.5 | 0.00 | 0.05 | 0.00 | 59 | 1014.9 |
| 20260502212504 | 5 | 341 | 3.2 | 12.9 | 0.00 | 0.08 | 0.00 | 60 | 1014.9 |
| 20260502212004 | 5 | 312 | 8.0 | 14.5 | 0.00 | 0.08 | 0.00 | 58 | 1014.9 |
| 20260502211503 | 5 | 325 | 8.0 | 12.9 | 0.00 | 0.08 | 0.00 | 58 | 1014.8 |
| 20260502210503 | 5 | 288 | 4.8 | 12.9 | 0.00 | 0.10 | 0.00 | 57 | 1014.8 |
| 20260502210003 | 5 | 333 | 4.8 | 8.0 | 0.00 | 0.10 | 0.00 | 58 | 1014.8 |
| 20260502205503 | 6 | 306 | 4.8 | 20.9 | 0.00 | 0.10 | 0.00 | 57 | 1014.8 |
| 20260502205005 | 6 | 304 | 4.8 | 12.9 | 0.00 | 0.10 | 0.00 | 58 | 1014.7 |
| 20260502204505 | 6 | 323 | 8.0 | 14.5 | 0.00 | 0.10 | 0.00 | 56 | 1014.7 |
| 20260502204004 | 6 | 337 | 8.0 | 12.9 | 0.00 | 0.10 | 0.00 | 56 | 1014.7 |
| 20260502203004 | 6 | 299 | 8.0 | 14.5 | 0.00 | 0.13 | 0.00 | 54 | 1014.7 |
| 20260502202003 | 6 | 332 | 6.4 | 12.9 | 0.00 | 0.13 | 0.00 | 51 | 1014.7 |
| 20260502201504 | 6 | 335 | 4.8 | 19.3 | 0.00 | 0.13 | 0.00 | 53 | 1014.7 |
| 20260502201003 | 6 | 314 | 8.0 | 19.3 | 0.00 | 0.15 | 0.00 | 52 | 1014.8 |
| 20260502200503 | 6 | 294 | 6.4 | 19.3 | 0.00 | 0.15 | 0.00 | 52 | 1014.8 |
| 20260502195504 | 6 | 276 | 6.4 | 12.9 | 0.00 | 0.15 | 0.00 | 52 | 1014.9 |
| 20260502195004 | 6 | 245 | 8.0 | 16.1 | 0.00 | 0.15 | 0.00 | 49 | 1014.9 |
| 20260502194504 | 6 | 224 | 3.2 | 12.9 | 0.00 | 0.18 | 0.00 | 52 | 1015.0 |
| 20260502194004 | 7 | 258 | 8.0 | 14.5 | 0.00 | 0.18 | 0.00 | 50 | 1015.0 |
| 20260502193503 | 7 | 321 | 4.8 | 11.3 | 0.00 | 0.18 | 0.00 | 50 | 1015.0 |
| 20260502193004 | 7 | 331 | 8.0 | 19.3 | 0.00 | 0.18 | 0.00 | 51 | 1015.1 |
| 20260502192504 | 7 | 323 | 4.8 | 20.9 | 0.00 | 0.18 | 0.00 | 53 | 1015.2 |
| 20260502192004 | 7 | 246 | 4.8 | 20.9 | 0.00 | 0.20 | 0.00 | 52 | 1015.3 |
| 20260502191503 | 6 | 331 | 6.4 | 14.5 | 0.00 | 0.20 | 0.00 | 52 | 1015.3 |
| 20260502191004 | 6 | 238 | 4.8 | 14.5 | 0.00 | 0.23 | 0.00 | 53 | 1015.3 |
| 20260502190504 | 6 | 324 | 8.0 | 16.1 | 0.00 | 0.23 | 0.00 | 50 | 1015.4 |
| 20260502190004 | 6 | 347 | 6.4 | 19.3 | 0.00 | 0.23 | 0.00 | 51 | 1015.4 |
| 20260502185504 | 6 | 310 | 8.0 | 16.1 | 0.00 | 0.25 | 0.00 | 52 | 1015.4 |
| 20260502185004 | 7 | 317 | 8.0 | 14.5 | 0.00 | 0.25 | 0.00 | 51 | 1015.4 |
| 20260502184503 | 7 | 321 | 6.4 | 16.1 | 0.00 | 0.28 | 0.00 | 52 | 1015.4 |
| 20260502184003 | 7 | 14 | 4.8 | 12.9 | 0.00 | 0.28 | 0.00 | 50 | 1015.4 |
| 20260502183505 | 6 | 321 | 9.7 | 19.3 | 0.00 | 0.28 | 0.00 | 51 | 1015.4 |
| 20260502183003 | 6 | 296 | 8.0 | 12.9 | 0.00 | 0.28 | 0.00 | 50 | 1015.4 |
| 20260502182504 | 6 | 328 | 4.8 | 16.1 | 0.00 | 0.28 | 0.00 | 50 | 1015.4 |
| 20260502182003 | 6 | 320 | 6.4 | 12.9 | 0.00 | 0.30 | 0.00 | 53 | 1015.5 |
| 20260502181504 | 6 | 335 | 8.0 | 19.3 | 0.00 | 0.30 | 0.00 | 53 | 1015.5 |
| 20260502181004 | 6 | 20 | 3.2 | 11.3 | 0.00 | 0.30 | 0.00 | 52 | 1015.5 |
| 20260502180504 | 6 | 4 | 8.0 | 16.1 | 0.00 | 0.33 | 0.00 | 52 | 1015.6 |
| 20260502170504 | 6 | 317 | 9.7 | 16.1 | 0.00 | 0.51 | 0.00 | 58 | 1015.7 |
| 20260502164004 | 5 | 1 | 9.7 | 19.3 | 0.00 | 0.58 | 0.00 | 56 | 1015.7 |
| 20260502163505 | 6 | 345 | 6.4 | 9.7 | 0.00 | 0.58 | 0.00 | 55 | 1015.8 |
| 20260502163004 | 6 | 337 | 6.4 | 12.9 | 0.00 | 0.58 | 0.00 | 57 | 1015.7 |
| 20260502162003 | 5 | 13 | 4.8 | 14.5 | 0.00 | 0.61 | 0.00 | 59 | 1015.8 |
| 20260502161504 | 5 | 317 | 4.8 | 12.9 | 0.00 | 0.64 | 0.00 | 59 | 1015.8 |
| 20260502161002 | 5 | 337 | 6.4 | 12.9 | 0.00 | 0.64 | 0.00 | 59 | 1015.8 |
| 20260502160502 | 5 | 335 | 6.4 | 11.3 | 0.00 | 0.64 | 0.00 | 58 | 1015.9 |
| 20260502152002 | 3 | 292 | 4.8 | 9.7 | 0.00 | 0.69 | 0.00 | 67 | 1015.9 |
| 20260502151502 | 3 | 303 | 3.2 | 11.3 | 0.00 | 0.71 | 0.00 | 68 | 1015.9 |
| 20260502150503 | 3 | 322 | 6.4 | 14.5 | 0.00 | 0.74 | 0.00 | 70 | 1015.9 |
| 20260502130503 | 2 | 286 | 1.6 | 11.3 | 0.00 | 0.94 | 0.00 | 81 | 1015.8 |
| 20260502123504 | 1 | 278 | 4.8 | 8.0 | 0.00 | 0.94 | 0.00 | 85 | 1015.9 |
| 20260502123003 | 1 | 283 | 3.2 | 4.8 | 0.00 | 0.94 | 0.00 | 85 | 1016.0 |
| 20260502122003 | 1 | 330 | 3.2 | 4.8 | 0.00 | 0.94 | 0.00 | 87 | 1015.9 |
| 20260502121003 | 1 | 282 | 1.6 | 4.8 | 0.00 | 0.94 | 0.00 | 87 | 1015.9 |
| 20260502115504 | 1 | 297 | 3.2 | 8.0 | 0.00 | 0.94 | 0.00 | 89 | 1015.9 |
| 20260502115004 | 1 | 302 | 3.2 | 4.8 | 0.00 | 0.94 | 0.00 | 89 | 1015.9 |
| 20260502114503 | 1 | 308 | 4.8 | 12.9 | 0.00 | 0.94 | 0.00 | 90 | 1016.0 |
| 20260502114003 | 1 | 297 | 3.2 | 8.0 | 0.00 | 0.94 | 0.00 | 90 | 1015.9 |
| 20260502113504 | 1 | 263 | 3.2 | 4.8 | 0.00 | 0.94 | 0.00 | 90 | 1015.8 |
| 20260502113004 | 1 | 273 | 3.2 | 4.8 | 0.00 | 0.94 | 0.00 | 91 | 1015.7 |
| 20260502112503 | 1 | 316 | 3.2 | 4.8 | 0.00 | 0.94 | 0.00 | 91 | 1015.7 |
| 20260502112003 | 1 | 318 | 4.8 | 9.7 | 0.00 | 0.94 | 0.00 | 91 | 1015.7 |
| 20260502111003 | 1 | 24 | 1.6 | 4.8 | 0.00 | 0.94 | 0.00 | 91 | 1015.6 |
| 20260502110004 | 0 | 242 | 1.6 | 4.8 | 0.00 | 0.94 | 0.00 | 91 | 1015.6 |
| 20260502105503 | 0 | 229 | 1.6 | 3.2 | 0.00 | 0.94 | 0.00 | 91 | 1015.6 |
| 20260502104505 | 0 | 226 | 1.6 | 3.2 | 0.00 | 0.94 | 0.00 | 91 | 1015.6 |
| 20260502104003 | 0 | 224 | 1.6 | 3.2 | 0.00 | 0.94 | 0.00 | 91 | 1015.6 |
| 20260502103503 | 0 | 250 | 0.0 | 1.6 | 0.00 | 0.94 | 0.00 | 92 | 1015.5 |
| 20260502103003 | 0 | 250 | 1.6 | 4.8 | 0.00 | 0.94 | 0.00 | 92 | 1015.5 |
| 20260502102505 | 0 | 268 | 1.6 | 4.8 | 0.00 | 0.94 | 0.00 | 92 | 1015.5 |
| 20260502102003 | 0 | 278 | 1.6 | 4.8 | 0.00 | 0.94 | 0.00 | 92 | 1015.5 |
| 20260502101504 | 0 | 248 | 1.6 | 3.2 | 0.00 | 0.94 | 0.00 | 92 | 1015.4 |
| 20260502101003 | 0 | 250 | 1.6 | 4.8 | 0.00 | 0.94 | 0.00 | 92 | 1015.4 |
| 20260502100503 | 0 | 257 | 1.6 | 4.8 | 0.00 | 0.94 | 0.00 | 92 | 1015.4 |
| 20260502091503 | 0 | 198 | 3.2 | 4.8 | 0.00 | 0.94 | 0.00 | 93 | 1015.1 |
| 20260502091003 | 0 | 220 | 1.6 | 4.8 | 0.00 | 0.94 | 0.00 | 93 | 1015.0 |
| 20260502090502 | 0 | 223 | 1.6 | 3.2 | 0.00 | 0.94 | 0.00 | 93 | 1015.0 |
| 20260502071503 | 0 | 221 | 1.6 | 3.2 | 0.00 | 0.94 | 0.00 | 94 | 1014.4 |
| 20260502071003 | 0 | 222 | 1.6 | 3.2 | 0.00 | 0.94 | 0.00 | 94 | 1014.5 |
| 20260502070504 | 0 | 226 | 1.6 | 4.8 | 0.00 | 0.94 | 0.00 | 94 | 1014.5 |
| 20260502065503 | 0 | 229 | 0.0 | 3.2 | 0.00 | 0.94 | 0.00 | 94 | 1014.3 |
| 20260502065003 | 1 | 230 | 1.6 | 4.8 | 0.00 | 0.94 | 0.00 | 94 | 1014.3 |
| 20260502064505 | 1 | 282 | 0.0 | 4.8 | 0.00 | 0.94 | 0.00 | 95 | 1014.4 |
| 20260502064003 | 1 | 293 | 1.6 | 3.2 | 0.00 | 0.94 | 0.00 | 95 | 1014.4 |
| 20260502063503 | 1 | 293 | 1.6 | 4.8 | 0.00 | 0.94 | 0.00 | 95 | 1014.5 |
| 20260502063003 | 1 | 290 | 3.2 | 4.8 | 0.00 | 0.94 | 0.00 | 95 | 1014.7 |
| 20260502062503 | 1 | 321 | 0.0 | 3.2 | 0.00 | 0.94 | 0.00 | 95 | 1014.3 |
| 20260502062003 | 1 | 315 | 4.8 | 8.0 | 0.00 | 0.94 | 0.00 | 96 | 1014.4 |
| 20260502061503 | 1 | 323 | 1.6 | 4.8 | 0.00 | 0.94 | 0.00 | 95 | 1014.5 |
| 20260502061003 | 0 | 257 | 1.6 | 3.2 | 0.00 | 0.94 | 0.00 | 95 | 1014.6 |
| 20260502060503 | 0 | 256 | 0.0 | 4.8 | 0.00 | 0.94 | 0.00 | 95 | 1014.9 |
| 20260502060004 | 0 | 256 | 0.0 | 1.6 | 0.00 | 0.94 | 0.00 | 95 | 1015.0 |
| 20260502055503 | 0 | 257 | 1.6 | 4.8 | 0.00 | 0.94 | 0.00 | 95 | 1015.1 |
| 20260502055003 | 0 | 259 | 1.6 | 4.8 | 0.00 | 0.94 | 0.00 | 95 | 1015.0 |
| 20260502054505 | 0 | 263 | 1.6 | 4.8 | 0.00 | 0.94 | 0.00 | 95 | 1015.1 |
| 20260502054003 | 0 | 264 | 1.6 | 4.8 | 0.00 | 0.94 | 0.00 | 95 | 1015.2 |
| 20260502053503 | 0 | 222 | 3.2 | 4.8 | 0.00 | 0.94 | 0.00 | 95 | 1015.2 |
| 20260502053003 | 0 | 257 | 1.6 | 4.8 | 0.00 | 0.94 | 0.00 | 95 | 1015.3 |
| 20260502052503 | 0 | 230 | 3.2 | 8.0 | 0.00 | 0.94 | 0.00 | 95 | 1015.3 |
| 20260502052003 | 0 | 223 | 3.2 | 4.8 | 0.00 | 0.94 | 0.00 | 95 | 1015.4 |
| 20260502051503 | 0 | 217 | 1.6 | 4.8 | 0.00 | 0.94 | 0.00 | 95 | 1015.4 |
| 20260502051004 | 0 | 217 | 1.6 | 4.8 | 0.00 | 0.94 | 0.00 | 95 | 1015.3 |